Regional Weather Roundup
Issued by NWS Little Rock, AR

Home | Current Version | Previous Version | Graphics & Text | Print | Product List | Glossary On
Versions: 1 2 3 4 5 6 7 8 9 10 11 12 13 14 15 16 17 18 19 20 21 22 23 24 25 26 27
000
ASUS44 KLZK 292105
RWRLZK

WEATHER ROUNDUP FOR ARKANSAS
NATIONAL WEATHER SERVICE LITTLE ROCK AR
400 PM CDT FRI APR 29 2016

NOTE: "FAIR" INDICATES FEW OR NO CLOUDS BELOW 12,000 FEET WITH NO
SIGNIFICANT WEATHER AND/OR OBSTRUCTIONS TO VISIBILITY.

ARZ001-003-010-029-292200-
NORTHWEST ARKANSAS

CITY           SKY/WX    TMP DP  RH WIND       PRES   REMARKS
FAYETTEVILLE   PTSUNNY   71  62  73 E10       29.73F
FORT SMITH     MOSUNNY   71  60  68 E14G23    29.70F
HARRISON       CLOUDY    57  56  96 E10       29.83F FOG
BENTONVILLE    PTSUNNY   66  55  68 E18       29.76F
ROGERS         CLOUDY    63  57  81 E18G24    29.76F
SILOAM SPGS    CLOUDY    70  57  64 E9G16     29.73F
HIGHFILL       CLOUDY    67  59  75 E16G23    29.74S
SPRINGDALE     PTSUNNY   68  59  73 E16G26    29.76F
$$

ARZ004-005-016-292200-
NORTH CENTRAL ARKANSAS

CITY           SKY/WX    TMP DP  RH WIND       PRES   REMARKS
BATESVILLE     CLOUDY    63  59  88 E10       29.88F
FLIPPIN        CLOUDY   N/A N/A N/A E6        29.82F
MTN HOME       LGT RAIN  58  57  97 SE12G18   29.85F
$$

ARZ040-041-292200-
WEST CENTRAL ARKANSAS

CITY           SKY/WX    TMP DP  RH WIND       PRES   REMARKS
MENA           CLOUDY    68  66  94 N3        29.76S
MOUNT IDA      CLOUDY    66  64  93 CALM      29.75F
$$

ARZ009-017-025-026-028-292200-
NORTHEAST ARKANSAS

CITY           SKY/WX    TMP DP  RH WIND       PRES   REMARKS
CORNING          N/A     63  63 100 E10       29.92F
JONESBORO      CLOUDY    64  63  96 SE16G24   29.90R
NEWPORT        CLOUDY    65  64  96 E13       29.89F
WALNUT RIDGE   CLOUDY    64  57  77 E10       29.90S
BLYTHEVILLE    CLOUDY    62  61  96 E21G29    29.90F
$$

ARZ022-023-033-042-044-292200-
CENTRAL ARKANSAS

CITY           SKY/WX    TMP DP  RH WIND       PRES   REMARKS
LITTLE ROCK    CLOUDY    69  66  90 E12       29.82F
N LITTLE ROCK    N/A     65  64  97 E8        29.80F
JACKSONVILLE   CLOUDY    65  65 100 NE8       29.81F
SEARCY         CLOUDY    65  62  90 E7        29.87F
HOT SPRINGS    CLOUDY    70  68  93 SE12G18   29.79F
RUSSELLVILLE   CLOUDY    65  61  87 E9G16     29.80F
$$

ARZ036-292200-
EAST ARKANSAS

CITY           SKY/WX    TMP DP  RH WIND       PRES   REMARKS
WEST MEMPHIS   LGT RAIN  64  63  96 SE15      29.91S
$$

ARZ050-053-066-070-073-292200-
SOUTHWEST ARKANSAS

CITY           SKY/WX    TMP DP  RH WIND       PRES   REMARKS
ARKADELPHIA    FAIR      74  74 100 SE6       29.79F FOG
CAMDEN         CLOUDY    75  66  73 SE9       29.80F
TEXARKANA      TSTM      72  70  93 E3        29.74R FOG
EL DORADO      TSTM      68  67  96 E8        29.81F FOG
DE QUEEN       CLOUDY    68  67  96 SE8G18    29.69F
$$

ARZ056-057-069-292200-
SOUTHEAST ARKANSAS

CITY           SKY/WX    TMP DP  RH WIND       PRES   REMARKS
PINE BLUFF     CLOUDY    68  65  90 SE17      29.85F
STUTTGART      CLOUDY    66  61  82 SE22G28   29.83F
MONTICELLO     LGT RAIN  73  70  90 SE7       29.86F

$$






USA.gov is the U.S. government's official web portal to all federal, state and local government web resources and services.